Tiempo cada hora Abadszalok

Hoy, 25 Octubre, Domingo

Tiempo Temperatura Precipitaciones Viento Presión Humedad
00:00 +13°C° 0 mm 3 mps 754 mmHg 85%
01:00 +13°C° 0 mm 3 mps 754 mmHg 84%
02:00 +13°C° 0.3 mm 3 mps 754 mmHg 85%
03:00 +13°C° 0.3 mm 3 mps 753 mmHg 87%
04:00 +13°C° 0.3 mm 3 mps 753 mmHg 88%
05:00 +13°C° 1.2 mm 3 mps 753 mmHg 90%
06:00 +12°C° 1.2 mm 3 mps 753 mmHg 92%
07:00 +12°C° 1.2 mm 3 mps 753 mmHg 94%
08:00 +12°C° 1.1 mm 3 mps 753 mmHg 94%
09:00 +12°C° 1.1 mm 3 mps 753 mmHg 94%
10:00 +13°C° 1.1 mm 3 mps 752 mmHg 94%
11:00 +13°C° 0.3 mm 3 mps 752 mmHg 94%
12:00 +14°C° 0.3 mm 2 mps 752 mmHg 94%
13:00 +14°C° 0.3 mm 2 mps 752 mmHg 93%
14:00 +14°C° 0.1 mm 2 mps 752 mmHg 94%
15:00 +14°C° 0.1 mm 2 mps 752 mmHg 94%
16:00 +14°C° 0.1 mm 1 mps 752 mmHg 95%
17:00 +14°C° 0 mm 1 mps 752 mmHg 95%
18:00 +14°C° 0 mm 1 mps 752 mmHg 96%
19:00 +14°C° 0 mm 1 mps 752 mmHg 96%
20:00 +14°C° 0 mm 1 mps 752 mmHg 96%
21:00 +14°C° 0 mm 1 mps 752 mmHg 96%
22:00 +14°C° 0 mm 1 mps 752 mmHg 96%
23:00 +14°C° 0 mm 1 mps 752 mmHg 96%

Mañana, 26 Octubre, Lunes

Tiempo Temperatura Precipitaciones Viento Presión Humedad
00:00 +14°C° 0 mm 1 mps 752 mmHg 96%
01:00 +14°C° 0 mm 1 mps 752 mmHg 96%
02:00 +13°C° 0 mm 2 mps 752 mmHg 96%
03:00 +13°C° 0 mm 2 mps 752 mmHg 96%
04:00 +13°C° 0 mm 2 mps 752 mmHg 96%
05:00 +13°C° 0 mm 2 mps 752 mmHg 96%
06:00 +13°C° 0 mm 2 mps 752 mmHg 96%
07:00 +12°C° 0 mm 3 mps 752 mmHg 96%
08:00 +13°C° 0 mm 3 mps 752 mmHg 91%
09:00 +14°C° 0 mm 3 mps 752 mmHg 86%
10:00 +15°C° 0 mm 4 mps 752 mmHg 82%
11:00 +17°C° 0 mm 4 mps 752 mmHg 77%
12:00 +18°C° 0 mm 4 mps 751 mmHg 73%
13:00 +19°C° 0 mm 4 mps 751 mmHg 68%
14:00 +18°C° 0 mm 4 mps 751 mmHg 70%
15:00 +18°C° 0 mm 4 mps 751 mmHg 71%
16:00 +17°C° 0 mm 3 mps 751 mmHg 73%
17:00 +17°C° 0 mm 3 mps 751 mmHg 76%
18:00 +16°C° 0 mm 3 mps 751 mmHg 78%
19:00 +16°C° 0 mm 3 mps 751 mmHg 81%
20:00 +14°C° 0 mm 3 mps 751 mmHg 82%
21:00 +14°C° 0 mm 3 mps 752 mmHg 83%
22:00 +14°C° 0 mm 3 mps 752 mmHg 84%
23:00 +13°C° 0 mm 3 mps 752 mmHg 85%

Pasado mañana, 27 Octubre, Martes

Tiempo Temperatura Precipitaciones Viento Presión Humedad
00:00 +13°C° 0 mm 3 mps 752 mmHg 85%
01:00 +13°C° 0 mm 2 mps 752 mmHg 86%
02:00 +13°C° 0 mm 2 mps 752 mmHg 87%
03:00 +13°C° 0 mm 2 mps 752 mmHg 87%
04:00 +13°C° 0 mm 2 mps 752 mmHg 88%
05:00 +12°C° 0 mm 2 mps 752 mmHg 88%
06:00 +12°C° 0 mm 2 mps 752 mmHg 88%
07:00 +12°C° 0 mm 2 mps 752 mmHg 88%
08:00 +14°C° 0 mm 2 mps 752 mmHg 81%
09:00 +15°C° 0 mm 2 mps 752 mmHg 74%
10:00 +17°C° 0 mm 2 mps 752 mmHg 67%
11:00 +18°C° 0 mm 2 mps 752 mmHg 63%
12:00 +19°C° 0 mm 2 mps 751 mmHg 60%
13:00 +20°C° 0 mm 2 mps 751 mmHg 56%
14:00 +19°C° 0 mm 2 mps 751 mmHg 59%
15:00 +18°C° 0 mm 2 mps 751 mmHg 63%
16:00 +19°C° 0 mm 1 mps 751 mmHg 66%
17:00 +18°C° 0 mm 1 mps 751 mmHg 69%
18:00 +16°C° 0 mm 1 mps 751 mmHg 71%
19:00 +15°C° 0 mm 1 mps 752 mmHg 73%
20:00 +15°C° 0 mm 1 mps 752 mmHg 75%
21:00 +15°C° 0 mm 1 mps 752 mmHg 76%
22:00 +14°C° 0 mm 1 mps 752 mmHg 77%
23:00 +14°C° 0 mm 1 mps 752 mmHg 78%

, 28 Octubre, Miércoles

Tiempo Temperatura Precipitaciones Viento Presión Humedad
00:00 +14°C° 0 mm 1 mps 752 mmHg 80%
01:00 +13°C° 0 mm 1 mps 752 mmHg 81%
02:00 +13°C° 0 mm 1 mps 752 mmHg 82%
03:00 +13°C° 0 mm 1 mps 752 mmHg 82%
04:00 +13°C° 0 mm 1 mps 753 mmHg 83%
05:00 +13°C° 0 mm 1 mps 753 mmHg 83%
06:00 +13°C° 0 mm 1 mps 753 mmHg 83%
07:00 +13°C° 0 mm 1 mps 753 mmHg 84%
08:00 +14°C° 0 mm 1 mps 753 mmHg 78%
09:00 +15°C° 0 mm 1 mps 753 mmHg 73%
10:00 +18°C° 0 mm 1 mps 754 mmHg 67%
11:00 +16°C° 0 mm 0 mps 753 mmHg 65%
12:00 +17°C° 0 mm 0 mps 753 mmHg 62%
13:00 +18°C° 0 mm 0 mps 753 mmHg 59%
14:00 +17°C° 0 mm 0 mps 753 mmHg 63%
15:00 +17°C° 0 mm 0 mps 753 mmHg 66%
16:00 +16°C° 0 mm 0 mps 753 mmHg 69%
17:00 +15°C° 0 mm 0 mps 753 mmHg 72%
18:00 +15°C° 0 mm 0 mps 754 mmHg 74%
19:00 +14°C° 0 mm 0 mps 754 mmHg 77%
20:00 +14°C° 0 mm 0 mps 754 mmHg 78%
21:00 +14°C° 0 mm 0 mps 754 mmHg 79%
22:00 +13°C° 0 mm 0 mps 755 mmHg 80%
23:00 +13°C° 0 mm 0 mps 755 mmHg 81%

28 Octubre, Miércoles

Tiempo Temperatura Precipitaciones Viento Presión Humedad
00:00 +14°C° 0 mm 1 mps 752 mmHg 80%
01:00 +13°C° 0 mm 1 mps 752 mmHg 81%
02:00 +13°C° 0 mm 1 mps 752 mmHg 82%
03:00 +13°C° 0 mm 1 mps 752 mmHg 82%
04:00 +13°C° 0 mm 1 mps 753 mmHg 83%
05:00 +13°C° 0 mm 1 mps 753 mmHg 83%
06:00 +13°C° 0 mm 1 mps 753 mmHg 83%
07:00 +13°C° 0 mm 1 mps 753 mmHg 84%
08:00 +14°C° 0 mm 1 mps 753 mmHg 78%
09:00 +15°C° 0 mm 1 mps 753 mmHg 73%
10:00 +18°C° 0 mm 1 mps 754 mmHg 67%
11:00 +16°C° 0 mm 0 mps 753 mmHg 65%
12:00 +17°C° 0 mm 0 mps 753 mmHg 62%
13:00 +18°C° 0 mm 0 mps 753 mmHg 59%
14:00 +17°C° 0 mm 0 mps 753 mmHg 63%
15:00 +17°C° 0 mm 0 mps 753 mmHg 66%
16:00 +16°C° 0 mm 0 mps 753 mmHg 69%
17:00 +15°C° 0 mm 0 mps 753 mmHg 72%
18:00 +15°C° 0 mm 0 mps 754 mmHg 74%
19:00 +14°C° 0 mm 0 mps 754 mmHg 77%
20:00 +14°C° 0 mm 0 mps 754 mmHg 78%
21:00 +14°C° 0 mm 0 mps 754 mmHg 79%
22:00 +13°C° 0 mm 0 mps 755 mmHg 80%
23:00 +13°C° 0 mm 0 mps 755 mmHg 81%

29 Octubre, Jueves

Tiempo Temperatura Precipitaciones Viento Presión Humedad
00:00 +13°C° 0 mm 0 mps 754 mmHg 83%
01:00 +12°C° 0 mm 0 mps 754 mmHg 84%
02:00 +12°C° 0 mm 0 mps 755 mmHg 85%
03:00 +12°C° 0 mm 0 mps 755 mmHg 86%
04:00 +12°C° 0 mm 0 mps 755 mmHg 86%
05:00 +12°C° 0 mm 0 mps 755 mmHg 87%
06:00 +12°C° 0 mm 0 mps 755 mmHg 87%
07:00 +12°C° 0 mm 0 mps 756 mmHg 87%
08:00 +13°C° 0 mm 0 mps 756 mmHg 81%
09:00 +14°C° 0 mm 0 mps 756 mmHg 76%
10:00 +18°C° 0 mm 1 mps 756 mmHg 70%
11:00 +18°C° 0 mm 1 mps 756 mmHg 67%
12:00 +19°C° 0 mm 1 mps 757 mmHg 64%
13:00 +19°C° 0 mm 2 mps 757 mmHg 62%
14:00 +19°C° 0 mm 1 mps 757 mmHg 65%
15:00 +19°C° 0 mm 1 mps 757 mmHg 68%
16:00 +18°C° 0 mm 1 mps 757 mmHg 71%
17:00 +16°C° 0 mm 1 mps 757 mmHg 74%
18:00 +15°C° 0 mm 2 mps 758 mmHg 77%
19:00 +15°C° 0 mm 2 mps 758 mmHg 79%
20:00 +14°C° 0 mm 2 mps 758 mmHg 79%
21:00 +14°C° 0 mm 2 mps 759 mmHg 79%
22:00 +13°C° 0 mm 2 mps 759 mmHg 79%
23:00 +13°C° 0 mm 2 mps 759 mmHg 79%

30 Octubre, Viernes

Tiempo Temperatura Precipitaciones Viento Presión Humedad
00:00 +13°C° 0 mm 2 mps 760 mmHg 80%
01:00 +12°C° 0 mm 2 mps 760 mmHg 80%
02:00 +12°C° 0 mm 2 mps 760 mmHg 80%
03:00 +12°C° 0 mm 2 mps 760 mmHg 80%
04:00 +10°C° 0 mm 2 mps 760 mmHg 80%
05:00 +10°C° 0 mm 2 mps 761 mmHg 79%
06:00 +10°C° 0 mm 2 mps 761 mmHg 79%
07:00 +10°C° 0 mm 2 mps 761 mmHg 79%
08:00 +13°C° 0 mm 2 mps 761 mmHg 73%
09:00 +14°C° 0 mm 2 mps 761 mmHg 67%
10:00 +16°C° 0 mm 3 mps 762 mmHg 62%
11:00 +17°C° 0 mm 3 mps 762 mmHg 58%
12:00 +18°C° 0 mm 3 mps 762 mmHg 55%
13:00 +18°C° 0 mm 3 mps 762 mmHg 52%
14:00 +18°C° 0 mm 3 mps 761 mmHg 56%
15:00 +17°C° 0 mm 2 mps 761 mmHg 59%
16:00 +16°C° 0 mm 2 mps 761 mmHg 63%
17:00 +16°C° 0 mm 1 mps 761 mmHg 65%
18:00 +15°C° 0 mm 1 mps 762 mmHg 66%
19:00 +14°C° 0 mm 1 mps 762 mmHg 68%
20:00 +14°C° 0 mm 1 mps 762 mmHg 69%
21:00 +14°C° 0 mm 1 mps 762 mmHg 69%
22:00 +14°C° 0 mm 1 mps 762 mmHg 70%
23:00 +13°C° 0 mm 1 mps 762 mmHg 71%
Mostrar más

Necesitamos Su Consentimiento

Meteoprog y nuestros Proveedores de Servicios pueden almacenar y acceder a sus datos personales como cookies, identificadores de dispositivo u otras tecnologías similares de su dispositivo y procesar dichos datos para personalizar contenido y anuncios, además de ofrecer funciones de redes sociales y analizar el tráfico.

  • Almacenar y/o acceder a información en su dispositivo

    Se puede almacenar o acceder a cookies, identificadores de dispositivo u otra información de su dispositivo para los fines anteriormente indicados.

  • Anuncios y contenido personalizados, medición de anuncios y contenido, percepciones del público, y desarrollo de productos

    Los anuncios y el contenido pueden personalizarse en base a su perfil. Se pueden añadir más datos para personalizar mejor los anuncios y contenidos. Se puede medir el rendimiento de los anuncios y contenidos. Se puede obtener la percepción sobre el público que ha visto los anuncios y contenidos. Dichos datos pueden usarse para desarrollar o mejorar la experiencia del usuario, sistemas y software.

Al hacer clic en ‘Estoy De Acuerdo’ usted permitirá el uso de las cookies, identificadores de dispositivo, balizas web u otras tecnologías similares indicadas. Su configuración puede cambiarse desde el navegador de su dispositivo.

Para ciertos fines, los intereses legítimos pueden ser considerados por encima del consentimiento. Puede leer más sobre ello en nuestra Política de Privacidad y Cookies.